Location: Saratoga Springs
(43.0831°N, 73.7850°W)
Time: 14:37:21
(UTC-04:00)

Vanguard 3 - Visible Passes

Search period start: 23 April 2024 00:00
Search period end: 03 May 2024 00:00
Orbit: 510 x 3235 km, 33.3° (Epoch: 23 April)

Date Brightness Start Highest point End Pass type
(mag) Time Alt. Az. Time Alt. Az. Time Alt. Az.
23 Apr 10.5 01:47:01 23° SE 01:47:01 23° SE 01:55:55 10° ESE visible
23 Apr 9.7 03:51:12 25° SSW 03:59:30 42° SSE 04:09:10 10° E visible
24 Apr 11.0 00:33:08 12° ESE 00:33:08 12° ESE 00:34:55 10° ESE visible
24 Apr 10.1 02:37:19 33° S 02:40:29 35° SSE 02:51:28 10° E visible
24 Apr 9.4 04:41:30 16° WSW 04:54:07 49° S 05:03:10 10° ESE visible
25 Apr 10.5 01:23:20 26° SE 01:23:20 26° SE 01:32:42 10° E visible
25 Apr 9.7 03:27:31 30° SSW 03:35:13 45° SSE 03:45:58 10° E visible
26 Apr 11.0 00:09:15 14° ESE 00:09:15 14° ESE 00:11:58 10° ESE visible
26 Apr 10.1 02:13:25 37° S 02:15:55 39° SSE 02:28:04 10° E visible
26 Apr 9.5 04:17:36 19° WSW 04:29:55 53° S 04:39:57 10° ESE visible
27 Apr 10.4 00:59:14 29° SE 00:59:14 29° SE 01:09:11 10° E visible
27 Apr 9.8 03:03:24 34° SSW 03:10:42 49° SSE 03:22:33 10° E visible
27 Apr 9.3 05:08:56 10° WSW 05:24:28 54° S 05:33:38 10° ESE visible
27 Apr 10.9 23:44:56 15° ESE 23:44:56 15° ESE 23:48:30 10° E visible
28 Apr 10.0 01:49:05 41° S 01:51:08 42° SSE 02:04:27 10° E visible
28 Apr 9.6 03:53:14 22° WSW 04:05:30 55° S 04:16:34 10° ESE visible
29 Apr 10.4 00:34:38 31° SE 00:34:38 31° SE 00:45:22 10° E visible
29 Apr 9.8 02:38:46 38° SSW 02:45:58 52° SSE 02:58:57 10° E visible
29 Apr 9.5 04:43:28 10° WSW 05:00:08 56° S 05:10:17 10° ESE visible
29 Apr 10.9 23:20:02 17° ESE 23:20:02 17° ESE 23:24:37 10° E visible
30 Apr 10.0 01:24:09 44° S 01:26:09 45° SSE 01:40:36 10° E visible
30 Apr 9.7 03:28:16 24° WSW 03:40:51 58° S 03:53:01 10° ESE visible
30 Apr11.322:05:14E22:05:14E21:39:20Svisible
01 May 10.4 00:09:19 34° SE 00:09:19 34° SE 00:21:17 10° E visible
01 May 9.8 02:13:25 39° SW 02:21:01 54° SSE 02:35:08 10° E visible
01 May 9.6 04:17:56 10° W 04:35:35 57° S 04:46:45 10° ESE visible
01 May 10.8 22:54:12 19° ESE 22:54:12 19° ESE 23:00:23 10° E visible
02 May 10.0 00:58:16 45° S 01:00:58 47° SSE 01:16:31 10° E visible
02 May 9.7 03:02:19 23° WSW 03:15:59 59° S 03:29:16 10° ESE visible
02 May 9.6 05:13:41 10° W 05:29:56 49° SSW 05:40:03 10° SE visible
02 May 10.9 21:21:02 10° SSE 21:38:35 - E 21:21:21 10° SSE visible
